Location: Corcelles
(46.1547°N, 4.7234°E)
Time: 08:32:15
(UTC+00:00)

Abrixas rocket - Pass Details

Date: 14 July 2020
Orbit: 338 x 346 km, 48.4° (Epoch: 13 August)

Event Time Altitude Azimuth Distance (km) Brightness Sun altitude
Exits shadow 01:34:26 24° 296° (WNW) 762 3.5 -18.0°
Maximum altitude 01:35:57 60° 10° (N) 391 2.3 -17.9°
Drops below altitude 10° 01:38:47 10° 92° (E) 1,279 5.0 -17.6°
Sets 01:40:48 0° 96° (E) 2,116 6.1 -17.5°
